www.pogodaiklimat.ru

Погода и климат >> Архив погоды >> Россия >> Хабаровский край >> Верховье Урми


ПОГОДА в Верховье Урми

  • Прогноз погоды в Верховье Урми
  • Монитор погоды в Верховье Урми

АРХИВ ПОГОДЫ в Верховье Урми

Время (UTC), дата Ветер
(напр.,м/с)
 
Видим.   Явления Облачность Т
(С)
Тd
(С)
f
(%)
Тe
(С)
Тes
(С)
Комфортность P
(гПа)
Po
(гПа)
Тmin
(С)
Tmax
(С)
R
(мм)
R24
(мм)
S
(см)
18 16.07 штиль 0 20 км 9/4 600 м
[Cb cap Ac trans]
+15.5 +15.3 99 +15 +15 1009.9 960.0
21 16.07 штиль 0 50 км 10/8 600 м
[Cb cap Ci fib]
+16.2 +15.9 98 +16 +16 1008.9 959.1 +14.9
00 17.07 штиль 0 50 км 10/10 600 м
[Cb cap]
+21.1 +15.4 70 +24 +24 комфорт 1008.9 960.0
03 17.07 ЮВ 1 50 км 10/10 600 м
[Cb cap]
+22.8 +15.6 64 +27 +27 душно 1007.3 958.7
06 17.07 Ю 1 50 км 10/10 600 м
[Cb cap]
+22.3 +16.8 71 +27 +27 душно 1005.9 957.3
09 17.07 штиль 0 20 км {ливн. осадки} 10/10 600 м
[Cb cap]
+20.4 +17.9 86 +24 +24 комфорт 1004.3 955.1 +23.5 0.3
12 17.07 штиль 0 20 км {ливн. осадки} 10/10 600 м
[Cb cap]
+18.2 +17.6 96 +19 +19 1005.2 956.0
15 17.07 штиль 0 20 км в посл. час ливневой дождь 10/10 600 м
[Cb cap]
+17.4 +17.2 99 +17 +17 1005.3 956.0
18 17.07 штиль 0 20 км {ливн. осадки} 10/10 600 м
[Cb cap]
+16.9 +16.6 98 +17 +17 1004.0 954.7
21 17.07 штиль 0 20 км 10/10 600 м
[Cb cap]
+17.0 +16.8 99 +17 +17 1003.6 953.8 +16.5 9
00 18.07 штиль 0 20 км 10/10 600 м
[Cb cap]
+19.4 +18.4 94 +22 +22 комфорт 1003.6 954.7
03 18.07 В 2 20 км в посл. час ливневой дождь 10/10 600 м
[Cb cap]
+20.5 +18.6 89 +25 +25 комфорт 1001.9 953.3
06 18.07 С 2 50 км гроза без осадков {ливн. осадки} 10/8 600 м
[Cb cap Ac cuf]
+23.9 +16.7 64 +27 +27 жарко 1000.0 952.0
09 18.07 штиль 0 50 км гроза, ливневой дождь 10/8 600 м
[Cb cap Ac cuf]
+22.8 +17.3 71 +28 +28 душно 1001.6 953.3 +26.1 0.3
12 18.07 Ю 1 10 км слаб. ливневой дождь {гроза} 10/10 600 м
[Cb cap]
+19.4 +19.1 98 +23 +23 комфорт 1003.6 954.7
15 18.07 штиль 0 20 км в посл. час ливневой дождь 10/10 600 м
[Cb cap]
+17.8 +17.6 99 +18 +18 1003.9 954.7
18 18.07 штиль 0 20 км {ливн. осадки} 10/10 600 м
[Cb cap]
+17.7 +17.5 99 +18 +18 1003.9 954.7
21 18.07 штиль 0 50 км 10/10 600 м
[Cb cap]
+17.1 +17.0 99 +17 +17 1004.6 954.8 +17.1 0.9
00 19.07 Ю 1 50 км 10/10 600 м
[Cb cap]
+20.1 +18.6 91 +25 +25 комфорт 1004.8 956.0
03 19.07 ЮВ 1 50 км 8/4 600 м
[Cb cap Ac cuf]
+25.0 +17.2 62 +29 +35 душно 1004.0 956.0
06 19.07 СВ 1 50 км слаб. ливневой дождь, в посл. час гроза 9 баллов +22.8 +20.5 87 +30 +31 очень
душно
1004.3 956.0
09 19.07 В 1 50 км 9/8 600 м
[Cb cap Ac cuf]
+22.7 +20.6 88 +30 +30 очень
душно
1004.3 956.0 +26.0 4
12 19.07 СВ 1 20 км 4/3 600 м
[Cb cap Ac trans]
+19.4 +18.7 96 +23 +23 комфорт 1007.8 958.7
15 19.07 штиль 0 20 км 3/0
[Ci fib]
+17.1 +16.9 99 +17 +17 1008.2 958.7
18 19.07 СВ 1 20 км 3/0
[Ci fib]
+15.2 +15.0 99 +16 +16 1010.0 960.0
21 19.07 СВ 1 20 км 4/0
[Ac trans Ci fib]
+15.6 +15.3 98 +16 +17 1010.2 960.3 +13.6
00 20.07 штиль 0 50 км 6/3 600 м
[Cb cap Ci fib]
+23.9 +18.1 70 +28 +34 душно 1009.8 961.3
03 20.07 Ю 1 50 км 9/5 600 м
[Cb cap Ci fib]
+27.8 +16.7 51 +31 +33 душно 1009.2 961.3
06 20.07 В 3 20 км 10/10 600 м
[Cb cap]
+26.8 +18.1 59 +31 +31 душно 1007.9 960.0
09 20.07 ЮВ 1 50 км 9/3 600 м
[Cb cap Ac trans]
+27.6 +18.0 56 +32 +32 очень
душно
1007.8 960.0 +29.8
12 20.07 штиль 0 20 км 10/3 600 м
[Cb cap Ac trans Ci fib]
+20.1 +19.4 96 +23 +23 комфорт 1010.4 961.3
15 20.07 штиль 0 20 км 9/4 600 м
[Cb cap Ac trans Ci fib]
+17.9 +17.7 99 +18 +18 1010.8 961.3
18 20.07 штиль 0 20 км 10/6 600 м
[Cb cap Ac trans]
+17.2 +17.0 99 +17 +17 1010.9 961.3
21 20.07 штиль 0 50 км 10/0
[Ac und]
+18.1 +17.9 99 +18 +19 1009.4 960.0 +17.0
00 21.07 В 1 50 км 10/10 600 м
[Cb cap]
+23.8 +18.7 73 +28 +28 душно 1008.4 960.0
03 21.07 В 2 50 км 10/10 600 м
[Cb cap]
+25.4 +19.1 68 +30 +30 душно 1008.1 960.0
06 21.07 В 2 50 км 10/10 600 м
[Cb cap]
+24.4 +19.2 73 +29 +29 душно 1008.3 960.0
09 21.07 В 1 50 км 10/10 600 м
[Cb cap]
+24.4 +20.1 77 +30 +30 очень
душно
1008.3 960.0 +25.7
12 21.07 штиль 0 20 км 10 баллов +22.1 +20.6 91 +28 +28 душно 1008.6 960.0
15 21.07 С 1 10 км слаб. ливневой дождь 10/10 600 м
[Cb cap]
+20.9 +20.7 99 +27 +27 душно 1007.5 958.7
18 21.07 СЗ 1 20 км в посл. час ливневой дождь 10 баллов +17.1 +16.9 99 +18 +18 1006.7 957.3
21 21.07 СЗ 1 50 км {ливн. осадки} 9/6 600 м
[Cb cap Ac cuf]
+17.3 +17.1 99 +18 +19 1005.1 955.7 +16.5 8
00 22.07 СЗ 1 50 км 10 баллов +20.0 +18.8 93 +24 +24 комфорт 1004.8 956.0
03 22.07 В 2 50 км 10 баллов +25.1 +19.7 72 +31 +31 очень
душно
1001.1 953.3
06 22.07 В 2 50 км 10 баллов +24.5 +17.5 65 +29 +29 душно 999.9 952.0
09 22.07 СЗ 1 20 км в посл. час ливневой дождь 10/10 600 м
[Cb cap]
+20.4 +20.1 98 +26 +26 душно 1000.5 952.0 +26.2 2
12 22.07 Ю 1 10 км слаб. ливневой дождь 10 баллов +20.1 +19.6 97 +25 +25 комфорт 999.2 950.7
15 22.07 штиль 0 10 км слаб. ливневой дождь 10 баллов +19.2 +19.0 99 +21 +21 комфорт 997.9 949.3
18 22.07 ЮВ 1 20 км в посл. час ливневой дождь 10 баллов +18.7 +18.5 99 +21 +21 комфорт 996.6 948.0
21 22.07 Ю 1 500 м туман 10/10 600 м
[Cb cap]
+18.8 +18.6 99 +21 +21 комфорт 996.9 948.2 +18.7 20
00 23.07 Ю 1 10 км в посл. час туман 10 баллов +20.3 +19.6 96 +25 +25 комфорт 997.7 949.3
03 23.07 ЮЗ 1 10 км слаб. ливневой дождь 10 баллов +21.4 +19.9 91 +26 +26 душно 997.5 949.3
06 23.07 штиль 0 20 км в посл. час ливневой дождь 9 баллов +22.7 +19.5 82 +29 +30 очень
душно
997.3 949.3
09 23.07 З 2 10 км слаб. ливневой дождь 10/10 600 м
[Cb cap]
+21.5 +19.2 87 +26 +26 душно 999.0 950.7 +25.2 1
12 23.07 штиль 0 10 км слаб. ливневой дождь 10 баллов +19.2 +19.0 99 +21 +21 комфорт 1000.7 952.0

 

Местоположение метеостанции Верховье Урми (Хабаровский край, Россия): широта 50.05 долгота 133.50 высота над уровнем моря 433 м.

В архиве по умолчанию представлена погода в Верховье Урми за последнюю неделю. Архивные данные за месяц целиком и за предыдущие месяцы, начиная с января 2011 года, Вы можете получить, выбрав интересующий диапазон дат из раскрывающегося списка и нажав кнопку "Ввод!".


*Определитесь, кто Вы:
робот инопланетянин человек

Внимание! Время в таблицах - всемирное. Для получения местного времени необходимо прибавить поправку, которая равна 10 ч.

Смотрите также архив погоды в соседних городах и на ближайших метеорологических станциях:

Погода в Урми (Хабаровский край, Россия) (75 км)
Погода в Куре (Хабаровский край, Россия) (80 км)
Погода в Сутуре (Хабаровский край, Россия) (100 км)
Погода в Чекунде (Хабаровский край, Россия) (130 км)
Погода в Чегдомыне (Хабаровский край, Россия) (132 км)
Погода в Литовко (Хабаровский край, Россия) (147 км)
Погода в Биробиджане (Еврейская автономная область, Россия) (153 км)
Погода в Смидовиче (Еврейская автономная область, Россия) (163 км)
Погода в Усть-Умальте (Хабаровский край, Россия) (177 км)
Погода в Хабаровск Центре (Еврейская автономная область, Россия) (181 км)

Пояснения к столбцам:

Ветер - указаны скорость ветра в м/с - средняя за 10 мин, порывы в срок и между сроками (в фигурных скобках) и направление, откуда дует ветер: С - северный, СВ - северо-восточный, В - восточный, ЮВ - юго-восточный, Ю - южный, ЮЗ - юго-западный, З - западный, СЗ - северо-западный.
Видимость - горизонтальная дальность видимости в метрах или километрах. При видимости от 1 до 10 км при отсутствии осадков обычно наблюдается дымка, при ухудшении видимости до 1 км и менее - туман. В сухую погоду видимость может ухудшаться дымом, пылью или мглою.
Явления - указаны атмосферные явления, наблюдавшиеся в срок или в последний час перед сроком; фигурными скобками обозначены явления, наблюдавшиеся между сроками (за 1-3 часа до срока); квадратными скобками обозначены град или гололедные отложения с указанием их диаметра в мм.
Облачность - указаны через наклонную черту общая и нижняя облачность в баллах и высота нижней границы облаков в метрах; квадратными скобками обозначены формы облаков: Ci - перистые, Cs - перисто-слоистые, Cc - перисто-кучевые, Ac - высококучевые, As - высокослоистые, Sc - слоисто-кучевые, Ns - слоисто-дождевые, Cu - кучевые, Cb - кучево-дождевые. Подробнее классификацию облаков см. в Атласе облаков (PDF).
T - Температура воздуха - температура, измеренная на высоте 2 м над землей.
Td - Температура точки росы - температура, при понижении до которой содержащийся в воздухе водяной пар достигнет насыщения.
f - Относительная влажность воздуха - влажноcть воздуха, измеренная на высоте 2 м над землей.
Te - Эффективная температура - температура, которую ощущает одетый по сезону человек в тени. Характеристика душности погоды. При расчете учитывается влияние влажности воздуха и скорости ветра на теплоощущения человека.
Tes - Эффективная температура на солнце - температура, которую ощущает человек, с поправкой на солнечный нагрев. Характеристика знойности погоды. Зависит от высоты солнца над горизонтом, облачности и скорости ветра. Ночью, в пасмурную погоду, а также при ветре 12 м/с и более поправка равна нулю.
P - Атмосферное давление - приведенное к уровню моря атмосферное давление.
Po - Атмосферное давление - измеренное на уровне метеостанции атмосферное давление.
Tmin - Минимальная температура - минимум температуры воздуха на высоте 2 м над землей.
Tmax - Максимальная температура - максимум температуры воздуха на высоте 2 м над землей.
R - Количество осадков - Количество выпавших осадков за период времени, мм. При наведении курсора мыши на число - период времени, за который выпало указанное количество осадков.
R24 - Количество осадков - Количество выпавших осадков за 24 часа, мм.
S - Снежный покров - Высота снежного покрова, см. При наведении курсора мыши на число - состояние снежного покрова и степень покрытия местности в баллах.